Find Starlink 38263

NORAD ID: 100264 Int'l Des: 2026-181 Owner: SPXS Country: US Constellation: starlink operational

Current View

Loading 3D Globe...

About Starlink 38263

Starlink 38263 (NORAD 100264) is a starlink constellation satellite launched Aug 8, 2026 by SPXS of US. with a mass of 575.00 kg.

Upcoming Passes

Passes for default location (London). Set your location on the main map for personalized predictions.

Altitude History

Loading altitude history...

Two-Line Element Set

1 A0264U 26181U 26262.67777459 .00166637 00000-0 10967-2 0 9994
2 A0264 97.2849 306.2723 0000932 96.1459 263.9912 15.75183718 7829
Epoch: Sep 19, 2026 • Age: 22 hours

Current Status

Altitude 356.9 km
Apogee / Perigee N/A
Velocity 7.69 km/s
Sub-Earth Point -34.93°S, 95.14°W
Launch Date Aug 8, 2026
Age 0.1 years
Type internet

Technical Details

Classification Payload
Mass 575.00 kg
Dry Mass 530.00 kg
Length 0.30 m
Span 29.00 m
Shape ? Box + pan
Manufacturer SPXS
Bus Type Starlink V2MO
Phase Status In Orbit
Owner/State SPXS/US

Most Searched